SCP
0 0 0 0 0 0 0 0 0 0 0 0 0 0 0 0 0 0 0 0 0 0 0 0 0 0 0 0 0 0 0 0 0 0 0 0 0 0 0 0 0 0 0 0
0 0 0 0 0 0 0 0 0 0 0 0 0 0 0 0 0 0 0 0 0 0 0 0 0 0 0 0 0 0 0 0 0 0 0 0 0 0 0 0 0 0 0 0
0 0 0 0 0 0 0 0 0 0 0 0 0 0 0 0 0 0 0 0 0 0 0 0 0 0 0 0 0 0 0 0 0 0 0 0 0 0 0 0 0 0 0 0
0 0 0 0 0 0 0 0 0 0 0 0 0 0 0 0 0 0 0 0 0 0 0 0 0 0 0 0 0 0 0 0 0 0 0 0 0 0 0 0 0 0 0 0
0 0 0 0 0 0 0 0 0 0 0 0 0 0 0 0 0 0 0 0 0 0 0 0 0 0 0 0 0 0 0 0 0 0 0 0 0 0 0 0 0 0 0 0
0 0 0 0 0 0 0 0 0 0 0 0 0 0 0 0 0 0 0 0 0 0 0 0 0 0 0 0 0 0 0 0 0 0 0 0 0 0 0 0 0 0 0 0
0 0 0 0 0 0 0 0 0 0 0 0 0 0 0 0 0 0 0 0 0 0 0 0 0 0 0 0 0 0 0 0 0 0 0 0 0 0 0 0 0 0 0 0
0 0 0 0 0 0 0 0 0 0 0 0 0 0 0 0 0 0 0 0 0 0 0 0 0 0 0 0 0 0 0 0 0 0 0 0 0 0 0 0 0 0 0 0
0 0 0 0 0 0 0 0 0 0 0 0 0 0 0 0 0 0 0 0 0 0 0 0 0 0 0 0 0 0 0 0 0 0 0 0 0 0 0 0 0 0 0 0
0 0 0 0 0 0 0 0 0 0 0 0 0 0 0 0 0 0 0 0 0 0 0 0 0 0 0 0 0 0 0 0 0 0 0 0 0 0 0 0 0 0 0 0
0 0 0 0 0 0 0 0 0 0 0 0 0 0 0 0 0 0 0 0 0 0 0 0 0 0 0 0 0 0 0 0 0 0 0 0 0 0 0 0 0 0 0 0
0 0 0 0 0 0 0 0 0 0 0 0 0 0 0 0 0 0 0 0 0 0 0 0 0 0 0 0 0 0 0 0 0 0 0 0 0 0 0 0 0 0 0 0
0 0 0 0 0 0 0 0 0 0 0 0 0 0 0 0 0 0 0 0 0 0 0 0 0 0 0 0 0 0 0 0 0 0 0 0 0 0 0 0 0 0 0 0
0 0 0 0 0 0 0 0 0 0 0 0 0 0 0 0 0 0 0 0 0 0 0 0 0 0 0 0 0 0 0 0 0 0 0 0 0 0 0 0 0 0 0 0
0 0 0 0 0 0 0 0 0 0 0 0 0 0 0 0 0 0 0 0 0 0 0 0 0 0 0 0 0 0 0 0 0 0 0 0 0 0 0 0 0 0 0 0
0 0 0 0 0 0 0 0 0 0 0 0 0 0 0 0 0 0 0 0 0 0 0 0 0 0 0 0 0 0 0 0 0 0 0 0 0 0 0 0 0 0 0 0
0 0 0 0 0 0 0 0 0 0 0 0 0 0 0 0 0 0 0 0 0 0 0 0 0 0 0 0 0 0 0 0 0 0 0 0 0 0 0 0 0 0 0 0
0 0 0 0 0 0 0 0 0 0 0 0 0 0 0 0 0 0 0 0 0 0 0 0 0 0 0 0 0 0 0 0 0 0 0 0 0 0 0 0 0 0 0 0
0 0 0 0 0 0 0 0 0 0 0 0 0 0 0 0 0 0 0 0 0 0 0 0 0 0 0 0 0 0 0 0 0 0 0 0 0 0 0 0 0 0 0 0
0 0 0 0 0 0 0 0 0 0 0 0 0 0 0 0 0 0 0 0 0 0 0 0 0 0 0 0 0 0 0 0 0 0 0 0 0 0 0 0 0 0 0 0
0 0 0 0 0 0 0 0 0 0 0 0 0 0 0 0 0 0 0 0 0 0 0 0 0 0 0 0 0 0 0 0 0 0 0 0 0 0 0 0 0 0 0 0
0 0 0 0 0 0 0 0 0 0 0 0 0 0 0 0 0 0 0 0 0 0 0 0 0 0 0 0 0 0 0 0 0 0 0 0 0 0 0 0 0 0 0 0
0 0 0 0 0 0 0 0 0 0 0 0 0 0 0 0 0 0 0 0 0 0 0 0 0 0 0 0 0 0 0 0 0 0 0 0 0 0 0 0 0 0 0 0
0 0 0 0 0 0 0 0 0 0 0 0 0 0 0 0 0 0 0 0 0 0 0 0 0 0 0 0 0 0 0 0 0 0 0 0 0 0 0 0 0 0 0 0
0 0 0 0 0 0 0 0 0 0 0 0 0 0 0 0 0 0 0 0 0 0 0 0 0 0 0 0 0 0 0 0 0 0 0 0 0 0 0 0 0 0 0 0
0 0 0 0 0 0 0 0 0 0 0 0 0 0 0 0 0 0 0 0 0 0 0 0 0 0 0 0 0 0 0 0 0 0 0 0 0 0 0 0 0 0 0 0
0 0 0 0 0 0 0 0 0 0 0 0 0 0 0 0 0 0 0 0 0 0 0 0 0 0 0 0 0 0 0 0 0 0 0 0 0 0 0 0 0 0 0 0
Wind_Speed
4 3 4 5 5 7 7 6 7 5 4 2 2 4 4 5 5 4 4 3 2 1 1 2 3 3 4 5 5 6 7 8 8 8 8 8 8 8 8 9 9 9 9 9
5 3 5 6 7 7 7 6 6 5 4 3 3 3 4 5 5 5 4 3 2 2 2 2 3 4 4 5 5 6 7 7 7 8 8 8 8 8 8 8 9 9 9 9
5 2 7 8 6 7 6 5 6 6 2 5 4 4 4 5 5 5 4 3 2 2 2 2 3 3 5 5 5 6 7 7 7 8 8 8 9 9 9 9 9 9 9 9
5 4 7 2 2 3 5 6 6 5 2 3 2 3 3 4 4 4 3 3 2 2 1 2 2 3 4 5 5 6 7 7 7 8 9 9 9 9 9 8 8 8 8 9
6 7 6 3 4 5 6 5 4 5 4 4 4 4 6 5 4 4 3 2 1 1 1 1 2 3 4 5 5 6 7 7 8 8 9 9 9 9 8 8 8 8 8 8
7 7 6 2 7 4 4 5 5 5 4 5 6 5 3 6 5 4 3 3 2 1 1 1 2 3 5 5 5 6 7 8 8 8 8 9 9 9 8 8 8 8 8 8
9 8 6 6 9 7 6 3 5 4 4 6 6 1 6 6 5 5 4 3 3 2 2 1 2 3 5 5 5 6 7 7 8 7 8 8 8 8 8 8 8 8 8 8
7 8 2 10 9 6 2 4 4 5 5 6 5 5 5 5 5 5 5 4 4 3 2 2 2 4 5 5 6 6 7 7 8 7 8 7 7 7 7 7 8 7 6 7
4 2 5 6 5 1 1 3 4 6 6 7 7 7 6 6 5 5 4 4 3 3 3 3 3 4 5 5 6 7 7 7 7 8 7 7 7 8 7 6 6 6 6 6
5 3 2 5 5 4 4 4 5 6 7 8 7 7 7 6 5 5 5 4 4 4 4 3 3 4 5 5 6 7 8 7 7 7 7 6 6 6 6 6 6 6 7 7
7 4 3 4 4 4 5 5 6 6 7 8 7 7 7 6 5 5 5 5 4 4 5 5 4 4 5 5 5 7 8 7 7 6 6 6 6 5 6 6 5 7 8 7
5 2 4 3 2 3 5 7 8 8 8 8 7 7 7 6 5 5 5 5 5 6 6 5 5 5 5 4 5 7 7 6 6 6 5 6 6 5 4 6 5 8 9 9
7 6 6 6 4 4 5 7 8 9 9 8 8 7 7 6 5 5 6 6 6 6 6 6 6 5 5 4 5 6 7 7 6 6 6 6 6 7 6 4 9 10 10 10
5 5 5 3 2 3 5 6 7 8 8 8 7 7 6 6 5 6 6 6 6 6 6 6 6 6 5 5 6 7 8 6 6 6 6 6 6 7 6 7 6 3 5 8
3 3 4 3 1 3 4 5 7 7 7 7 6 6 6 6 6 5 5 5 5 6 7 7 7 6 5 5 6 7 7 6 5 6 7 7 7 7 6 7 6 6 4 1
5 3 2 0 1 2 4 5 6 6 6 6 6 6 6 5 5 5 5 6 6 7 7 7 7 7 6 6 7 7 6 5 6 8 7 6 6 6 6 6 6 5 5 5
4 3 2 1 1 2 3 4 4 4 4 5 5 5 5 4 5 5 5 6 7 7 7 7 8 7 7 7 7 7 6 5 7 8 7 6 6 6 6 6 6 5 4 3
3 3 3 2 1 0 1 2 2 2 2 3 3 4 4 4 4 4 5 6 7 8 8 8 7 7 8 8 7 7 6 6 6 6 6 5 6 7 6 6 6 5 4 1
6 5 5 5 4 3 2 1 1 1 1 1 2 2 3 4 4 5 5 6 7 8 7 7 6 8 9 8 7 7 8 8 7 6 6 5 6 6 6 6 6 5 4 4
8 8 7 7 7 6 5 4 3 2 1 1 1 1 2 3 4 4 5 7 7 6 5 5 6 8 9 8 7 8 8 8 7 7 6 6 6 5 5 5 5 5 5 4
8 8 7 7 7 7 6 5 3 2 2 1 1 2 3 3 4 4 5 7 6 5 6 5 6 6 6 5 8 9 8 8 8 7 7 6 6 5 5 5 5 4 5 4
7 7 7 6 6 5 5 4 4 3 3 3 3 4 4 5 5 5 6 6 6 3 5 6 6 5 5 6 8 8 8 8 8 7 6 6 6 5 5 5 5 4 4 4
6 6 6 6 6 5 5 5 5 5 5 5 5 5 6 6 6 6 7 5 6 3 6 7 5 5 6 8 8 8 9 9 8 7 6 6 6 5 5 5 4 3 3 4
5 5 5 5 5 5 6 6 6 5 6 7 6 6 6 6 6 6 7 5 5 5 7 6 5 6 8 8 8 8 8 8 7 7 6 6 6 5 4 4 4 3 3 4
5 5 5 5 5 5 5 6 7 6 7 6 7 7 6 5 6 7 7 9 6 6 8 6 7 9 9 8 8 7 7 6 6 5 5 5 5 5 4 4 4 3 3 3
4 4 4 5 5 5 6 6 6 6 7 7 7 7 6 6 7 7 7 9 10 7 8 6 5 6 7 7 7 7 7 6 6 6 6 5 6 5 3 3 4 3 2 2
5 5 4 5 4 5 6 7 7 7 7 8 8 8 8 8 8 9 10 9 8 8 7 6 5 5 5 6 6 5 5 5 5 5 4 5 4 3 3 4 3 2 2 1
Wind_Direction
294 294 264 260 234 214 240 280 301 330 324 357 164 197 188 185 187 197 202 208 219 258 292 308 319 318 327 331 333 328 322 322 324 321 319 315 314 312 309 305 303 305 300 296
244 231 249 252 247 238 242 258 270 283 300 91 127 169 179 190 199 209 213 213 224 248 284 304 312 318 327 328 330 323 321 324 327 323 322 322 318 315 311 308 308 305 301 299
256 222 251 244 234 232 234 239 261 281 345 133 179 194 203 203 207 214 215 215 235 263 283 295 308 322 319 325 322 319 321 323 326 326 323 322 319 317 315 313 309 305 302 299
259 239 256 48 86 253 254 250 251 266 241 197 200 178 193 202 209 208 208 215 224 255 271 290 309 314 312 315 316 315 319 323 326 324 323 322 317 316 316 312 310 307 305 302
259 251 261 185 178 208 231 256 226 234 224 179 155 201 189 177 192 199 193 194 208 245 271 294 309 320 310 308 314 317 323 326 327 324 321 318 318 319 317 313 310 308 305 303
244 269 276 71 128 162 231 241 163 197 207 180 187 240 125 140 171 176 176 174 190 212 235 254 298 305 300 305 314 321 326 324 321 317 315 314 315 315 314 309 306 307 307 303
246 256 264 108 137 175 235 51 130 178 189 187 204 334 98 136 157 169 174 175 185 212 243 268 282 286 293 305 315 321 320 316 313 313 310 309 310 309 308 307 311 309 308 304
239 252 259 133 161 211 12 103 158 170 176 185 179 148 149 154 162 173 180 183 194 215 245 253 262 274 287 302 314 314 312 311 312 312 311 316 312 308 307 307 304 303 305 308
265 316 69 177 202 203 104 181 178 180 173 178 181 180 178 175 176 181 188 191 210 229 244 246 247 267 286 303 308 308 307 308 310 310 308 307 308 309 305 303 309 321 322 323
260 251 213 205 221 223 226 219 192 182 176 180 184 182 181 181 181 186 192 201 216 235 248 252 257 266 280 291 299 300 303 307 305 303 308 319 312 315 320 323 326 324 324 326
252 274 256 205 220 222 213 202 191 182 179 182 184 181 182 184 186 191 194 204 220 236 250 260 265 271 278 284 293 299 302 303 303 305 316 310 311 317 315 328 337 311 319 321
287 336 291 298 255 219 203 197 191 185 182 184 187 185 186 187 184 191 199 205 219 234 245 253 259 266 274 279 285 293 296 303 306 308 317 313 316 315 235 249 249 243 253 275
293 308 299 297 269 220 206 199 191 189 186 185 188 190 189 189 186 193 204 214 225 237 244 248 256 264 269 268 276 284 292 300 303 307 311 311 314 316 318 277 226 230 236 243
291 284 276 275 257 217 209 193 186 185 185 186 184 189 192 193 195 204 215 222 229 237 242 246 253 262 267 263 268 277 283 283 279 290 298 304 311 311 312 320 324 311 220 220
312 283 282 303 254 192 184 178 178 179 180 183 183 189 196 202 209 217 222 225 229 238 242 245 250 258 259 259 265 275 281 288 300 301 294 296 304 305 308 315 320 325 330 220
320 310 298 311 145 158 166 173 181 183 182 187 191 197 205 212 222 228 224 222 230 239 243 245 249 253 249 252 261 263 260 252 270 289 291 294 300 304 310 315 317 323 332 340
323 338 349 353 117 161 175 181 189 194 186 187 194 197 203 214 226 234 236 231 235 244 245 247 251 252 247 246 255 266 274 258 228 262 281 296 301 303 307 309 314 322 333 6
8 359 3 358 3 97 173 182 193 195 194 189 186 186 201 215 234 243 242 238 233 240 243 243 244 247 244 244 249 265 268 272 272 278 289 292 302 299 301 303 307 313 321 313
44 43 39 37 33 41 45 50 80 116 141 173 181 198 223 239 244 248 247 244 244 246 245 242 233 239 243 239 243 247 259 264 267 270 276 277 272 282 296 301 305 312 320 321
48 49 49 48 46 49 49 50 55 71 85 135 170 206 243 261 263 258 250 251 253 264 265 248 230 234 242 232 225 247 252 258 264 268 271 278 283 290 291 295 304 311 316 316
42 42 44 47 46 45 40 35 34 34 20 343 289 284 286 287 281 273 266 268 270 264 261 235 235 241 239 233 217 244 249 253 256 259 265 272 279 284 287 292 294 302 314 319
28 26 24 24 24 23 18 9 6 0 352 334 322 316 308 299 294 285 272 274 288 281 263 255 243 239 238 236 236 241 243 248 253 256 257 263 270 274 279 289 295 301 307 309
10 6 2 360 354 347 348 350 346 339 329 320 315 312 309 307 302 296 294 298 294 281 261 263 256 219 215 233 245 243 242 244 249 253 253 256 261 266 273 280 284 289 297 306
353 352 350 345 338 334 337 340 335 325 316 308 303 305 300 297 295 296 306 308 290 278 273 266 229 216 222 242 245 244 241 243 246 249 252 252 255 262 268 274 281 286 291 300
338 334 337 332 325 330 330 319 313 314 311 314 313 315 309 307 307 313 312 309 305 280 279 260 215 212 229 244 243 242 242 244 249 253 254 257 259 262 268 274 278 282 290 304
315 313 328 321 320 310 309 313 315 318 316 315 314 316 316 314 311 308 303 303 304 291 284 282 256 226 239 246 245 243 242 232 222 231 243 252 254 255 260 271 274 279 289 311
277 278 274 283 294 305 311 312 311 312 313 314 316 316 313 311 309 308 307 305 305 300 297 288 275 261 254 252 249 245 245 244 237 232 236 243 248 251 252 254 263 271 280 290